STARLINK-4325, 53068

Orbit data source: Space-Track

STARLINK-4325, 53068 is a payload satellite owned by SpaceX/Seattle (US) in SSO that was launched on Mon, 11 Jul 2022 UTC via an FALCON 9 launch vehicle from the Air Force Western Test Range (AFWTR). Payload-class satellites include a variety of spacecraft equipped with specific instruments for various scientific and technological missions. These include communications satellites like Starlink; space stations such as the ISS; scientific satellites like the Hubble; Earth observation satellites from companies like Planet Labs, Umbra, and HawkEye 360; GPS; miniature CubeSats for education and research; and military/defense satellites.

Loading next visibility...
Identifier
53068, 2022-077AB
Orbit
SSO
Country
Flag of USUS
Related business
Manufacturer
SpaceX/Seattle
Mission
Operational Commercial Communications
Bus & Motor
STARLINK, Unknown motor
Mass
297 kg wet, ~275 kg dry
Launch date (UTC)
2022-07-11 (4 years ago)
Launch vehicle
FALCON 9
Launch site
Air Force Western Test Range (AFWTR)
Object type
Payload
Rocket body
Debris
Shape & HBR
Box + 1 Pan, 10.1 m
Radar Cross Section
13.562 m², Large (>1 m²)

Expand to show TLE details & history
Last TLE update: 2 days ago

TLE from 2 days ago
0 STARLINK-4325
1 53068U 22077AB  26171.44591317 -.00000657  00000-0 -41588-4 0  9991
2 53068  97.3410 351.4018 0001114   8.9329 351.1918 15.05637188216447
Epoch: 2026-06-20T10:42Z
TLE epoch observation values (Epoch: 2026-06-20T10:42:06.897Z)
Latitude
-0.00006°
Longitude
-77.78735°
Altitude
551.86 km
Speed
7.586 km/s
True Right ascension
23h 25m 36s
True Declination
0° 00' 00"
Sunlit
Object was in daylight at epoch
Visualization orbit readout
Latitude
Unknown
Longitude
Unknown
Altitude
Unknown
Speed
Unknown
Apparent Right ascension
Unknown
Apparent Declination
Unknown
Sunlit
N/A
Visualization observer readout
Local Sidereal Time
22:00:15
Azimuth
Unknown
Elevation
Unknown
Doppler factor
Unknown
Orbital elements
Apogee altitude
547.304 km
Perigee altitude
545.761 km
Semi-major axis
6,924.67 km
Eccentricity
0.00011
Inclination
97.341°
RAAN
351.4018°
Arg. of periapsis
8.9329°
True anomaly
351.18984°
Mean anomaly
351.1918°
Eccentric anomaly
351.19082°
Mean motion
3.76656 °/min
Orbital period
95.58 mins
BSTAR
-0.000041588
Loading maneuver chart data...
Computing Atmospheric mass density...
Loading historical data...
Loading historical data...
Loading historical data...
Loading historical data...
Loading historical data...
Loading historical data...
Loading historical data...

Documentation

Showing up to 5 results
|